This is the latest recevied weather packets stored in our database for station/object N8SHA. If no packets are shown the sender has not sent any weather packets the latest 10 day(s).
| Time | Temp. | Humidity | Pressure | Rain* | Wind** | Luminosity | Snow |
|---|---|---|---|---|---|---|---|
| 1777932038 | 23.89° C | 40% | 999.6 hPa | 0 mm | - | 117 W/m² | - |
| 1777931734 | 23.89° C | 40% | 999.6 hPa | 0 mm | - | 282 W/m² | - |
| 1777931432 | 23.89° C | 39% | 999.5 hPa | 0 mm | - | 250 W/m² | - |
| 1777931128 | 24.44° C | 39% | 999.4 hPa | 0 mm | - | 132 W/m² | - |
| 1777930824 | 25° C | 37% | 999.7 hPa | 0 mm | - | 431 W/m² | - |
| 1777930521 | 25.56° C | 37% | 999.5 hPa | 0 mm | - | 468 W/m² | - |
| 1777930218 | 25.56° C | 36% | 999.6 hPa | 0 mm | - | 440 W/m² | - |
| 1777929914 | 25.56° C | 36% | 999.6 hPa | 0 mm | - | 459 W/m² | - |
| 1777929612 | 25.56° C | 35% | 999.6 hPa | 0 mm | - | 493 W/m² | - |
| 1777929308 | 25.56° C | 35% | 999.6 hPa | 0 mm | - | 494 W/m² | - |
| 1777929006 | 25° C | 35% | 999.7 hPa | 0 mm | - | 449 W/m² | - |
| 1777928702 | 25.56° C | 35% | 999.7 hPa | 0 mm | - | 169 W/m² | - |
| 1777928399 | 25° C | 33% | 999.8 hPa | 0 mm | - | 496 W/m² | - |
| 1777928097 | 25.56° C | 33% | 999.7 hPa | 0 mm | - | 188 W/m² | - |
| 1777927795 | 25.56° C | 35% | 999.7 hPa | 0 mm | - | 576 W/m² | - |
| 1777927493 | 25.56° C | 31% | 999.8 hPa | 0 mm | - | 504 W/m² | - |
| 1777927192 | 25.56° C | 32% | 999.9 hPa | 0 mm | - | 584 W/m² | - |
| 1777926889 | 25.56° C | 31% | 1000 hPa | 0 mm | - | 565 W/m² | - |
| 1777926585 | 25° C | 33% | 1000 hPa | 0 mm | - | 555 W/m² | - |
| 1777926281 | 24.44° C | 31% | 1000.2 hPa | 0 mm | - | 627 W/m² | - |
| 1777925978 | 25° C | 31% | 999.9 hPa | 0 mm | - | 650 W/m² | - |
| 1777925675 | 25° C | 31% | 1000.1 hPa | 0 mm | - | 591 W/m² | - |
| 1777925373 | 25° C | 30% | 1000.2 hPa | 0 mm | - | 522 W/m² | - |
| 1777925070 | 25° C | 30% | 1000.2 hPa | 0 mm | - | 530 W/m² | - |
| 1777924766 | 25.56° C | 31% | 1000.3 hPa | 0 mm | - | 676 W/m² | - |
* Rain latest hour (hover to see other rain measurements)
** Current wind speed in m/s (hover to see current wind gust speed)